Weather History for Manchester, NH

Change the Weather History Date:

Wednesday, October 3, 2012

  Actual Average Record
Temperature  
Mean Temperature 62 °F -  
Max Temperature 64 °F 66 °F 84 °F (1971)
Min Temperature 59 °F 42 °F 29 °F (1949)
Degree Days  
Heating Degree Days 4    
Growing Degree Days 12 (Base 50)    
Moisture  
Dew Point 59 °F    
Average Humidity 93    
Maximum Humidity 100    
Minimum Humidity 87    
Precipitation  
Precipitation 0.06 in - - ()
Sea Level Pressure  
Sea Level Pressure 30.11 in    
Wind  
Wind Speed 2 mph (NE)    
Max Wind Speed 6 mph    
Max Gust Speed -    
Visibility 3 miles    
Events Fog , Rain    
Averages and records for this station are not official NWS values.
T = Trace of Precipitation, MM = Missing Value Source: NWS Daily Summary

Daily Weather History Graph

Daily Weather History Graph

Search for Another Location

Airport:

Trip Planner

Search our weather history database for the weather conditions in past years. The results will help you decide how hot, cold, wet, or windy it might be!

Date:

Astronomy

Oct. 03, 2012 Rise Set
Actual Time 6:45 AM EDT 6:22 PM EDT
Civil Twilight 6:17 AM EDT 6:50 PM EDT
Nautical Twilight 5:44 AM EDT 7:23 PM EDT
Astronomical Twilight 5:11 AM EDT 7:56 PM EDT
Moon 8:06 PM EDT (10/3) 10:12 AM EDT (10/3)
Length of Visible Light 12h 33m
Length of Day
11h 36m
Waning Gibbous, 89% of the Moon is Illuminated
Oct 3
Waning Gibbous
Oct 8
Last Quarter
Oct 15
New
Oct 21
First Quarter
Oct 29
Full

Hourly Weather History & Observations

Time (EDT) Temp. Dew Point Humidity Pressure Visibility Wind Dir Wind Speed Gust Speed Precip Events Conditions
12:27 AM 59.0 °F 57.2 °F 94% 30.04 in 2.0 mi South 3.5 mph - 0.00 in   Light Drizzle
12:53 AM 59.0 °F 57.9 °F 96% 30.08 in 3.0 mi Calm Calm - 0.00 in   Light Drizzle
1:33 AM 59.0 °F 57.2 °F 94% 30.04 in 1.0 mi Calm Calm - 0.01 in   Overcast
1:53 AM 60.1 °F 57.0 °F 90% 30.07 in 3.0 mi Calm Calm - 0.01 in   Overcast
2:53 AM 60.1 °F 57.9 °F 93% 30.07 in 2.0 mi Calm Calm - N/A   Overcast
3:53 AM 59.0 °F 57.9 °F 96% 30.08 in 1.0 mi Calm Calm - N/A   Overcast
4:25 AM 59.0 °F 57.2 °F 94% 30.04 in 0.5 mi Calm Calm - N/A Fog Fog
4:53 AM 59.0 °F 57.9 °F 96% 30.08 in 0.2 mi Calm Calm - 0.00 in Fog Light Drizzle
5:17 AM 59.0 °F 57.2 °F 94% 30.05 in 0.5 mi Calm Calm - 0.01 in Fog Light Drizzle
5:53 AM 59.0 °F 57.9 °F 96% 30.09 in 0.5 mi Calm Calm - 0.01 in Fog Light Drizzle
5:58 AM 59.0 °F 57.2 °F 94% 30.06 in 1.0 mi Calm Calm - 0.00 in   Light Drizzle
6:36 AM 60.8 °F 57.2 °F 88% 30.07 in 0.5 mi Calm Calm - 0.00 in   Light Drizzle
6:47 AM 60.8 °F 57.2 °F 88% 30.06 in 0.5 mi Calm Calm - 0.00 in   Light Drizzle
6:53 AM 60.1 °F 57.9 °F 93% 30.11 in 0.5 mi Calm Calm - 0.00 in   Light Drizzle
7:53 AM 60.1 °F 57.9 °F 93% 30.12 in 0.5 mi Calm Calm - 0.01 in   Light Drizzle
8:53 AM 60.1 °F 59.0 °F 96% 30.13 in 2.0 mi NNE 3.5 mph - 0.01 in   Light Drizzle
9:53 AM 61.0 °F 59.0 °F 93% 30.14 in 2.0 mi NNE 5.8 mph - 0.00 in Rain Light Rain
9:57 AM 60.8 °F 59.0 °F 94% 30.10 in 1.8 mi NNE 4.6 mph - 0.00 in Rain Light Rain
10:02 AM 60.8 °F 59.0 °F 94% 30.10 in 2.0 mi North 4.6 mph - 0.00 in Rain Light Rain
10:53 AM 61.0 °F 59.0 °F 93% 30.14 in 2.0 mi NNE 3.5 mph - 0.00 in   Light Drizzle
10:55 AM 60.8 °F 59.0 °F 94% 30.10 in 4.0 mi NE 3.5 mph - 0.00 in   Light Drizzle
11:36 AM 62.6 °F 60.8 °F 94% 30.10 in 2.0 mi NNE 5.8 mph - 0.00 in   Light Drizzle
11:38 AM 62.6 °F 60.8 °F 94% 30.10 in 1.8 mi NNE 5.8 mph - 0.00 in   Light Drizzle
11:53 AM 61.0 °F 60.1 °F 97% 30.14 in 1.8 mi North 5.8 mph - 0.00 in   Light Drizzle
11:59 AM 60.8 °F 60.8 °F 100% 30.11 in 2.0 mi North 4.6 mph - 0.00 in   Light Drizzle
12:09 PM 62.6 °F 60.8 °F 94% 30.11 in 1.8 mi NNE 4.6 mph - 0.01 in   Light Drizzle
12:23 PM 62.6 °F 60.8 °F 94% 30.11 in 3.0 mi NNE 3.5 mph - 0.02 in   Light Drizzle
12:32 PM 62.6 °F 60.8 °F 94% 30.10 in 6.0 mi NNE 4.6 mph - 0.02 in   Light Drizzle
12:45 PM 62.6 °F 60.8 °F 94% 30.10 in 5.0 mi NNE 4.6 mph - 0.02 in   Light Drizzle
12:53 PM 63.0 °F 60.1 °F 90% 30.14 in 5.0 mi Calm Calm - 0.02 in   Light Drizzle
1:29 PM 62.6 °F 60.8 °F 94% 30.09 in 5.0 mi Calm Calm - 0.00 in   Light Drizzle
1:53 PM 64.0 °F 61.0 °F 90% 30.12 in 4.0 mi NE 4.6 mph - 0.00 in Rain Light Rain
2:53 PM 64.0 °F 61.0 °F 90% 30.12 in 8.0 mi Calm Calm - 0.00 in   Overcast
3:53 PM 64.0 °F 60.1 °F 87% 30.13 in 10.0 mi ENE 3.5 mph - N/A   Overcast
4:53 PM 63.0 °F 61.0 °F 93% 30.14 in 7.0 mi Calm Calm - N/A   Overcast
5:53 PM 63.0 °F 61.0 °F 93% 30.15 in 3.0 mi East 3.5 mph - 0.00 in   Light Drizzle
6:53 PM 62.1 °F 60.1 °F 93% 30.16 in 5.0 mi East 4.6 mph - 0.00 in   Overcast
7:53 PM 61.0 °F 59.0 °F 93% 30.16 in 6.0 mi NE 4.6 mph - N/A   Overcast
8:53 PM 60.1 °F 59.0 °F 96% 30.17 in 8.0 mi NE 4.6 mph - N/A   Overcast
9:53 PM 60.1 °F 57.9 °F 93% 30.19 in 10.0 mi NE 5.8 mph - N/A   Overcast
10:53 PM 60.1 °F 57.9 °F 93% 30.19 in 10.0 mi Calm Calm - N/A   Overcast
11:53 PM 60.1 °F 57.9 °F 93% 30.20 in 4.0 mi NNE 3.5 mph - 0.00 in Rain Light Rain